Pagina principale
METAR-TAF:

METAR-TAF

Aeroporti :

Penn Valley Airport

Selinsgrove, Pennsylvania, Stati Uniti

latitudine: 40-49-09N, longitudine: 076-51-58W, altezza: 137 m

Osservazione

Il bollettino è stato emesso 11 minuti fa, alle 08:12 UTC
Vento calmo
Temperature 19°C
Umidità 94%
Pressione 1018 hPa
Visibilità: 4.8 km
Cielo sereno
foschia

METAR: KSEG 160812Z AUTO 00000KT 3SM BR CLR 19/18 A3005 RMK AO2 T01890183

Ora: 04:23 (08:23 UTC)


TAF: mancante

Osservazioni e previsioni meteorologiche di più di 4000 aeroporti (messaggi METAR e TAF).

Le stazioni disponibili sono rappresentate dai dischi gialli e rossi sulla carta.

Puntare il mouse per vedere il nome della stazione.

Clicca sopra per visualizzare le osservazioni e previsioni meteorologiche.

Per cambiare la mappa : fare clic sui pulsanti verdi con una croce nera per ingrandire, il pulsante verde con un trattino per diminuire, o sulla freccia verde per le mappe adiacenti.


METAR-TAF: